QPF
0.03 0.03 0.03 0.02 0.01 0.01 0.01 0.01 0.01 0.01 0.00 0.00 0.00 0.00 0.00 0.00 0.00 0.00 0.00 0.00 0.00 0.00 0.00 0.00 0.00 0.01 0.01 0.01 0.02 0.02 0.02 0.02 0.02 0.02 0.03 0.03 0.04 0.05
0.02 0.02 0.03 0.02 0.01 0.01 0.00 0.00 0.01 0.01 0.00 0.00 0.00 0.00 0.00 0.00 0.00 0.00 0.00 0.00 0.00 0.00 0.00 0.00 0.00 0.00 0.01 0.01 0.01 0.01 0.01 0.01 0.01 0.02 0.02 0.02 0.03 0.03
0.02 0.01 0.02 0.02 0.02 0.01 0.00 0.00 0.00 0.00 0.00 0.00 0.00 0.00 0.00 0.00 0.00 0.00 0.00 0.00 0.00 0.00 0.00 0.00 0.00 0.00 0.00 0.01 0.01 0.01 0.01 0.01 0.01 0.01 0.01 0.02 0.02 0.02
0.01 0.01 0.01 0.01 0.01 0.01 0.01 0.01 0.01 0.00 0.00 0.00 0.00 0.00 0.00 0.00 0.00 0.00 0.00 0.00 0.00 0.00 0.00 0.00 0.00 0.00 0.00 0.00 0.00 0.01 0.01 0.01 0.01 0.01 0.01 0.01 0.02 0.03
0.02 0.01 0.01 0.01 0.01 0.00 0.00 0.00 0.00 0.00 0.01 0.01 0.00 0.00 0.00 0.00 0.00 0.00 0.00 0.00 0.00 0.00 0.00 0.00 0.00 0.00 0.00 0.00 0.00 0.01 0.01 0.01 0.01 0.01 0.01 0.02 0.02 0.02
0.04 0.03 0.02 0.01 0.01 0.01 0.00 0.00 0.00 0.00 0.00 0.00 0.01 0.00 0.00 0.00 0.00 0.00 0.00 0.00 0.00 0.00 0.00 0.00 0.00 0.00 0.00 0.01 0.01 0.01 0.01 0.01 0.01 0.01 0.01 0.01 0.01 0.02
0.05 0.04 0.04 0.03 0.02 0.01 0.01 0.01 0.01 0.01 0.01 0.01 0.01 0.01 0.01 0.01 0.01 0.00 0.00 0.00 0.01 0.00 0.00 0.00 0.00 0.00 0.00 0.01 0.01 0.01 0.01 0.01 0.01 0.02 0.02 0.02 0.02 0.02
0.04 0.06 0.05 0.05 0.04 0.03 0.02 0.02 0.01 0.01 0.01 0.01 0.01 0.01 0.01 0.01 0.01 0.01 0.01 0.01 0.01 0.01 0.01 0.01 0.01 0.01 0.01 0.01 0.01 0.01 0.01 0.01 0.01 0.01 0.02 0.02 0.03 0.02
0.04 0.05 0.06 0.06 0.06 0.05 0.04 0.03 0.02 0.02 0.01 0.01 0.01 0.01 0.01 0.01 0.01 0.01 0.01 0.01 0.01 0.01 0.01 0.01 0.01 0.01 0.01 0.01 0.01 0.01 0.01 0.01 0.01 0.01 0.01 0.01 0.02 0.03
0.04 0.04 0.05 0.05 0.05 0.05 0.05 0.04 0.03 0.02 0.02 0.02 0.01 0.01 0.01 0.01 0.01 0.01 0.01 0.01 0.01 0.01 0.01 0.01 0.01 0.01 0.01 0.01 0.01 0.01 0.01 0.01 0.01 0.01 0.01 0.01 0.01 0.01
0.03 0.04 0.04 0.04 0.05 0.04 0.04 0.04 0.03 0.03 0.02 0.02 0.02 0.02 0.02 0.02 0.02 0.02 0.01 0.01 0.01 0.01 0.01 0.01 0.01 0.01 0.01 0.01 0.01 0.02 0.02 0.02 0.02 0.02 0.02 0.02 0.02 0.02
0.02 0.03 0.03 0.03 0.03 0.03 0.03 0.03 0.02 0.02 0.02 0.02 0.02 0.01 0.02 0.02 0.02 0.02 0.02 0.02 0.01 0.01 0.01 0.01 0.01 0.02 0.02 0.01 0.01 0.01 0.01 0.02 0.02 0.02 0.02 0.02 0.03 0.03
0.02 0.02 0.02 0.02 0.02 0.02 0.02 0.01 0.02 0.02 0.01 0.01 0.01 0.01 0.01 0.01 0.01 0.02 0.02 0.02 0.02 0.01 0.01 0.01 0.01 0.02 0.02 0.02 0.01 0.01 0.01 0.01 0.02 0.02 0.02 0.02 0.03 0.03
0.01 0.01 0.01 0.01 0.01 0.01 0.01 0.01 0.01 0.01 0.01 0.01 0.01 0.01 0.01 0.01 0.01 0.01 0.01 0.01 0.01 0.01 0.01 0.01 0.02 0.02 0.03 0.02 0.02 0.01 0.01 0.01 0.02 0.02 0.02 0.02 0.03 0.03
0.01 0.01 0.01 0.01 0.01 0.01 0.01 0.01 0.01 0.01 0.01 0.01 0.01 0.00 0.01 0.01 0.01 0.01 0.01 0.01 0.01 0.01 0.01 0.01 0.02 0.02 0.02 0.03 0.02 0.02 0.02 0.02 0.02 0.02 0.03 0.02 0.03 0.03
0.01 0.01 0.01 0.01 0.01 0.00 0.00 0.01 0.01 0.01 0.01 0.01 0.01 0.00 0.00 0.00 0.01 0.01 0.01 0.01 0.01 0.01 0.01 0.01 0.01 0.01 0.02 0.02 0.02 0.02 0.02 0.03 0.03 0.03 0.03 0.03 0.03 0.03
0.01 0.01 0.01 0.01 0.01 0.00 0.00 0.00 0.01 0.01 0.01 0.01 0.01 0.01 0.01 0.01 0.01 0.01 0.01 0.01 0.01 0.01 0.01 0.01 0.01 0.01 0.01 0.02 0.02 0.02 0.02 0.02 0.03 0.03 0.03 0.04 0.04 0.04
0.01 0.01 0.01 0.01 0.01 0.01 0.00 0.00 0.00 0.01 0.01 0.01 0.01 0.01 0.01 0.01 0.01 0.01 0.01 0.01 0.01 0.01 0.01 0.01 0.01 0.01 0.01 0.01 0.01 0.02 0.02 0.02 0.03 0.03 0.03 0.04 0.04 0.05
0.01 0.01 0.00 0.00 0.01 0.01 0.00 0.00 0.00 0.01 0.01 0.01 0.01 0.01 0.01 0.01 0.01 0.01 0.01 0.01 0.01 0.01 0.01 0.01 0.01 0.02 0.02 0.01 0.01 0.01 0.02 0.02 0.03 0.03 0.04 0.04 0.04 0.05
0.01 0.00 0.01 0.01 0.01 0.01 0.00 0.00 0.01 0.01 0.01 0.01 0.01 0.01 0.01 0.02 0.02 0.01 0.01 0.01 0.01 0.01 0.01 0.01 0.01 0.02 0.02 0.02 0.01 0.01 0.01 0.03 0.03 0.04 0.04 0.05 0.05 0.06
0.00 0.01 0.01 0.01 0.01 0.01 0.01 0.01 0.01 0.01 0.01 0.01 0.01 0.02 0.02 0.02 0.02 0.02 0.01 0.01 0.01 0.01 0.01 0.01 0.01 0.01 0.01 0.02 0.02 0.01 0.01 0.02 0.03 0.04 0.05 0.06 0.07 0.07
0.01 0.01 0.01 0.01 0.01 0.01 0.01 0.01 0.01 0.01 0.01 0.01 0.01 0.02 0.02 0.02 0.02 0.02 0.02 0.02 0.02 0.01 0.01 0.01 0.01 0.01 0.01 0.02 0.02 0.01 0.01 0.02 0.03 0.03 0.04 0.05 0.08 0.08
0.01 0.01 0.01 0.01 0.01 0.01 0.01 0.01 0.01 0.01 0.01 0.01 0.01 0.01 0.02 0.02 0.02 0.02 0.02 0.02 0.02 0.02 0.02 0.02 0.01 0.01 0.02 0.02 0.02 0.02 0.02 0.02 0.02 0.03 0.03 0.03 0.04 0.06
MSLP
1020.40 1020.55 1020.72 1020.87 1021.00 1021.10 1021.15 1021.16 1021.12 1021.06 1020.97 1020.87 1020.77 1020.68 1020.58 1020.50 1020.40 1020.30 1020.17 1020.03 1019.85 1019.65 1019.42 1019.17 1018.91 1018.64 1018.36 1018.09 1017.80 1017.52 1017.23 1016.92 1016.60 1016.25 1015.88 1015.49 1015.07 1014.63
1020.24 1020.42 1020.61 1020.78 1020.93 1021.04 1021.11 1021.14 1021.12 1021.05 1020.96 1020.85 1020.74 1020.62 1020.51 1020.40 1020.29 1020.19 1020.07 1019.93 1019.76 1019.57 1019.35 1019.11 1018.84 1018.56 1018.28 1017.99 1017.69 1017.41 1017.12 1016.83 1016.53 1016.20 1015.85 1015.46 1015.05 1014.60
1019.93 1020.13 1020.32 1020.51 1020.67 1020.81 1020.91 1020.96 1020.97 1020.95 1020.88 1020.79 1020.69 1020.58 1020.47 1020.36 1020.25 1020.13 1020.01 1019.87 1019.70 1019.50 1019.27 1019.01 1018.73 1018.42 1018.12 1017.81 1017.52 1017.23 1016.96 1016.69 1016.41 1016.12 1015.79 1015.43 1015.03 1014.59
1019.50 1019.69 1019.89 1020.08 1020.26 1020.42 1020.56 1020.65 1020.71 1020.74 1020.72 1020.68 1020.62 1020.53 1020.44 1020.34 1020.24 1020.12 1019.99 1019.83 1019.65 1019.43 1019.17 1018.89 1018.57 1018.25 1017.92 1017.60 1017.29 1017.01 1016.75 1016.50 1016.25 1015.99 1015.70 1015.37 1014.99 1014.56
1018.96 1019.14 1019.34 1019.53 1019.73 1019.92 1020.09 1020.23 1020.35 1020.43 1020.48 1020.50 1020.49 1020.45 1020.39 1020.32 1020.22 1020.11 1019.97 1019.80 1019.59 1019.35 1019.06 1018.74 1018.40 1018.04 1017.69 1017.35 1017.04 1016.75 1016.49 1016.25 1016.03 1015.79 1015.53 1015.23 1014.88 1014.48
1018.34 1018.52 1018.71 1018.91 1019.12 1019.34 1019.54 1019.73 1019.90 1020.04 1020.15 1020.22 1020.26 1020.27 1020.25 1020.21 1020.13 1020.03 1019.89 1019.71 1019.49 1019.22 1018.91 1018.57 1018.20 1017.82 1017.44 1017.09 1016.76 1016.46 1016.20 1015.97 1015.74 1015.52 1015.28 1014.99 1014.67 1014.29
1017.69 1017.87 1018.06 1018.26 1018.49 1018.72 1018.95 1019.17 1019.38 1019.56 1019.71 1019.83 1019.92 1019.96 1019.98 1019.96 1019.91 1019.82 1019.69 1019.52 1019.30 1019.02 1018.71 1018.35 1017.97 1017.57 1017.18 1016.81 1016.46 1016.15 1015.88 1015.63 1015.40 1015.17 1014.92 1014.65 1014.33 1013.97
1017.03 1017.21 1017.40 1017.62 1017.85 1018.09 1018.34 1018.57 1018.80 1019.00 1019.17 1019.31 1019.41 1019.49 1019.53 1019.54 1019.52 1019.45 1019.35 1019.20 1018.99 1018.73 1018.42 1018.08 1017.70 1017.30 1016.91 1016.53 1016.17 1015.84 1015.53 1015.26 1015.00 1014.74 1014.48 1014.19 1013.88 1013.53
1016.38 1016.56 1016.76 1016.99 1017.23 1017.47 1017.71 1017.95 1018.16 1018.35 1018.51 1018.65 1018.76 1018.85 1018.91 1018.94 1018.94 1018.91 1018.85 1018.73 1018.56 1018.33 1018.06 1017.74 1017.39 1017.01 1016.62 1016.24 1015.87 1015.52 1015.19 1014.87 1014.57 1014.28 1013.98 1013.67 1013.34 1012.99
1015.74 1015.93 1016.15 1016.38 1016.62 1016.86 1017.09 1017.29 1017.48 1017.64 1017.77 1017.89 1017.98 1018.06 1018.13 1018.19 1018.22 1018.23 1018.21 1018.14 1018.02 1017.85 1017.62 1017.35 1017.03 1016.69 1016.32 1015.95 1015.58 1015.21 1014.85 1014.49 1014.15 1013.80 1013.46 1013.11 1012.76 1012.41
1015.13 1015.33 1015.55 1015.79 1016.02 1016.25 1016.45 1016.62 1016.77 1016.88 1016.97 1017.05 1017.12 1017.20 1017.27 1017.34 1017.41 1017.46 1017.49 1017.47 1017.41 1017.30 1017.13 1016.92 1016.65 1016.35 1016.01 1015.66 1015.29 1014.91 1014.53 1014.14 1013.75 1013.36 1012.97 1012.58 1012.20 1011.82
1014.54 1014.75 1014.97 1015.21 1015.44 1015.64 1015.81 1015.94 1016.03 1016.10 1016.15 1016.19 1016.24 1016.30 1016.37 1016.47 1016.56 1016.66 1016.73 1016.77 1016.77 1016.72 1016.61 1016.45 1016.23 1015.97 1015.68 1015.35 1015.00 1014.62 1014.23 1013.81 1013.39 1012.95 1012.52 1012.09 1011.67 1011.27
1013.98 1014.18 1014.41 1014.63 1014.84 1015.02 1015.15 1015.24 1015.29 1015.32 1015.33 1015.34 1015.36 1015.42 1015.50 1015.61 1015.73 1015.86 1015.97 1016.06 1016.11 1016.10 1016.05 1015.93 1015.77 1015.56 1015.30 1015.01 1014.68 1014.31 1013.92 1013.49 1013.04 1012.58 1012.10 1011.63 1011.18 1010.75
1013.45 1013.64 1013.85 1014.06 1014.24 1014.39 1014.49 1014.54 1014.55 1014.54 1014.52 1014.50 1014.52 1014.57 1014.65 1014.77 1014.92 1015.07 1015.21 1015.33 1015.41 1015.45 1015.43 1015.36 1015.23 1015.06 1014.85 1014.59 1014.29 1013.94 1013.56 1013.14 1012.68 1012.19 1011.69 1011.18 1010.69 1010.23
1012.96 1013.13 1013.31 1013.49 1013.63 1013.74 1013.80 1013.82 1013.80 1013.76 1013.71 1013.69 1013.69 1013.74 1013.83 1013.96 1014.11 1014.27 1014.43 1014.56 1014.66 1014.71 1014.72 1014.68 1014.59 1014.45 1014.28 1014.06 1013.79 1013.48 1013.11 1012.70 1012.24 1011.74 1011.22 1010.69 1010.17 1009.67
1012.52 1012.65 1012.78 1012.91 1013.01 1013.08 1013.10 1013.08 1013.03 1012.97 1012.91 1012.87 1012.87 1012.91 1012.99 1013.11 1013.26 1013.42 1013.57 1013.71 1013.81 1013.87 1013.89 1013.87 1013.81 1013.71 1013.57 1013.39 1013.16 1012.88 1012.54 1012.15 1011.69 1011.19 1010.65 1010.10 1009.55 1009.02
1012.12 1012.19 1012.27 1012.34 1012.39 1012.40 1012.38 1012.32 1012.24 1012.16 1012.08 1012.03 1012.01 1012.04 1012.11 1012.22 1012.34 1012.48 1012.62 1012.73 1012.83 1012.89 1012.91 1012.91 1012.88 1012.82 1012.72 1012.58 1012.39 1012.14 1011.83 1011.45 1011.01 1010.50 1009.95 1009.37 1008.80 1008.24
1011.74 1011.75 1011.77 1011.77 1011.76 1011.72 1011.65 1011.56 1011.45 1011.34 1011.24 1011.17 1011.13 1011.13 1011.17 1011.24 1011.34 1011.44 1011.55 1011.64 1011.72 1011.78 1011.82 1011.84 1011.83 1011.81 1011.75 1011.65 1011.50 1011.29 1011.00 1010.64 1010.19 1009.68 1009.11 1008.51 1007.91 1007.32
1011.38 1011.32 1011.28 1011.22 1011.15 1011.05 1010.94 1010.80 1010.66 1010.52 1010.39 1010.29 1010.22 1010.19 1010.18 1010.21 1010.26 1010.33 1010.40 1010.47 1010.53 1010.59 1010.65 1010.69 1010.73 1010.74 1010.73 1010.67 1010.56 1010.37 1010.10 1009.74 1009.29 1008.76 1008.17 1007.55 1006.91 1006.29
1011.00 1010.89 1010.79 1010.67 1010.55 1010.41 1010.25 1010.08 1009.90 1009.73 1009.57 1009.44 1009.33 1009.25 1009.20 1009.17 1009.17 1009.19 1009.23 1009.28 1009.34 1009.41 1009.48 1009.56 1009.63 1009.69 1009.72 1009.70 1009.61 1009.44 1009.17 1008.81 1008.35 1007.80 1007.19 1006.53 1005.87 1005.22
1010.59 1010.44 1010.29 1010.14 1009.97 1009.79 1009.60 1009.40 1009.20 1009.00 1008.81 1008.63 1008.48 1008.36 1008.26 1008.19 1008.14 1008.12 1008.13 1008.16 1008.22 1008.30 1008.40 1008.52 1008.63 1008.73 1008.79 1008.80 1008.73 1008.56 1008.29 1007.91 1007.43 1006.85 1006.21 1005.53 1004.83 1004.16
1010.13 1009.96 1009.78 1009.60 1009.41 1009.20 1008.99 1008.77 1008.54 1008.32 1008.11 1007.90 1007.72 1007.56 1007.41 1007.30 1007.22 1007.17 1007.15 1007.18 1007.24 1007.34 1007.47 1007.62 1007.77 1007.90 1007.99 1008.01 1007.94 1007.77 1007.48 1007.07 1006.56 1005.95 1005.28 1004.57 1003.85 1003.16
1009.62 1009.43 1009.24 1009.04 1008.83 1008.61 1008.38 1008.15 1007.92 1007.69 1007.46 1007.24 1007.04 1006.85 1006.68 1006.54 1006.44 1006.37 1006.35 1006.38 1006.45 1006.57 1006.73 1006.90 1007.07 1007.22 1007.31 1007.33 1007.25 1007.06 1006.74 1006.31 1005.76 1005.13 1004.43 1003.69 1002.96 1002.24
Thickness
5536 5535 5534 5533 5533 5531 5529 5527 5524 5524 5527 5528 5525 5525 5524 5523 5521 5520 5520 5521 5521 5522 5523 5524 5525 5526 5527 5528 5529 5530 5532 5533 5534 5535 5537 5539 5541 5543
5525 5524 5523 5522 5521 5519 5518 5516 5513 5512 5513 5516 5514 5513 5511 5510 5509 5509 5509 5509 5510 5511 5511 5512 5513 5514 5515 5516 5517 5518 5518 5520 5521 5522 5524 5526 5528 5531
5514 5513 5512 5511 5509 5507 5506 5504 5502 5499 5499 5502 5501 5500 5499 5497 5497 5497 5497 5497 5498 5498 5499 5500 5501 5501 5502 5503 5503 5504 5505 5506 5507 5509 5511 5513 5515 5518
5502 5501 5500 5499 5498 5496 5494 5492 5490 5488 5486 5487 5488 5486 5485 5484 5484 5484 5485 5485 5485 5486 5486 5487 5488 5488 5489 5489 5490 5491 5491 5492 5494 5495 5498 5500 5502 5504
5492 5490 5489 5487 5485 5484 5482 5480 5478 5477 5475 5474 5474 5473 5472 5471 5471 5471 5472 5472 5471 5472 5473 5474 5474 5475 5475 5476 5476 5477 5478 5479 5480 5482 5484 5486 5489 5491
5481 5479 5478 5477 5475 5472 5471 5469 5467 5465 5462 5461 5461 5460 5458 5458 5457 5456 5458 5458 5459 5459 5460 5461 5461 5461 5462 5463 5464 5464 5465 5466 5467 5469 5471 5474 5476 5479
5470 5469 5468 5467 5465 5462 5461 5458 5455 5452 5450 5449 5448 5447 5446 5444 5443 5442 5443 5444 5446 5447 5447 5447 5448 5449 5448 5449 5450 5451 5452 5453 5455 5457 5459 5461 5464 5467
5460 5459 5457 5456 5455 5453 5450 5448 5445 5441 5439 5437 5436 5434 5434 5432 5431 5430 5428 5429 5431 5433 5431 5433 5434 5435 5436 5437 5438 5439 5440 5442 5443 5445 5447 5449 5452 5455
5449 5447 5447 5446 5445 5442 5440 5438 5435 5432 5430 5428 5426 5424 5423 5421 5419 5418 5416 5415 5415 5417 5416 5421 5421 5422 5423 5425 5426 5427 5429 5430 5431 5433 5435 5437 5440 5442
5439 5437 5436 5435 5434 5432 5429 5426 5423 5421 5420 5419 5417 5415 5413 5411 5408 5406 5404 5404 5405 5404 5403 5405 5409 5410 5412 5413 5414 5415 5416 5418 5419 5421 5423 5426 5428 5430
5429 5427 5426 5425 5425 5423 5420 5417 5414 5412 5410 5409 5407 5405 5403 5401 5398 5395 5393 5392 5393 5394 5391 5391 5395 5397 5400 5402 5403 5404 5404 5405 5407 5409 5412 5414 5416 5418
5418 5418 5417 5416 5415 5413 5411 5408 5405 5403 5401 5399 5396 5394 5392 5390 5387 5384 5381 5379 5379 5380 5381 5379 5380 5380 5387 5391 5391 5392 5392 5394 5395 5397 5400 5402 5404 5406
5409 5408 5408 5407 5405 5404 5402 5399 5397 5395 5392 5389 5386 5384 5381 5379 5376 5374 5371 5369 5367 5367 5367 5366 5366 5366 5367 5375 5380 5380 5381 5383 5385 5387 5389 5391 5393 5395
5401 5399 5398 5398 5396 5394 5392 5391 5388 5385 5382 5379 5376 5374 5371 5369 5367 5365 5363 5360 5358 5356 5356 5354 5354 5354 5355 5359 5365 5369 5370 5371 5373 5376 5379 5381 5383 5384
5392 5391 5390 5388 5386 5384 5383 5381 5378 5374 5372 5369 5367 5365 5362 5360 5358 5356 5354 5352 5350 5348 5347 5345 5344 5344 5344 5347 5351 5355 5358 5362 5363 5365 5367 5370 5372 5374
5383 5382 5380 5378 5376 5375 5373 5371 5368 5366 5363 5361 5358 5356 5353 5350 5348 5346 5344 5342 5340 5340 5338 5337 5336 5335 5336 5338 5339 5342 5344 5346 5351 5353 5356 5360 5362 5364
5374 5372 5370 5368 5366 5365 5363 5361 5359 5357 5355 5352 5349 5347 5344 5342 5340 5337 5335 5333 5331 5330 5330 5329 5328 5327 5328 5328 5330 5333 5334 5336 5339 5342 5346 5350 5353 5354
5366 5363 5362 5360 5359 5357 5355 5353 5351 5349 5347 5344 5341 5339 5337 5335 5332 5329 5327 5324 5323 5322 5321 5321 5320 5320 5320 5322 5322 5323 5325 5327 5330 5332 5334 5338 5344 5346
5358 5356 5355 5353 5352 5350 5348 5346 5344 5342 5340 5337 5335 5332 5330 5328 5326 5323 5320 5318 5317 5316 5314 5313 5311 5309 5310 5312 5316 5316 5315 5318 5320 5323 5325 5328 5332 5337
5351 5350 5348 5347 5346 5344 5342 5339 5337 5335 5333 5331 5328 5326 5323 5321 5319 5317 5315 5312 5311 5309 5308 5306 5303 5301 5301 5301 5304 5308 5308 5309 5311 5314 5317 5320 5324 5329
5345 5344 5342 5341 5340 5337 5335 5333 5331 5329 5327 5324 5322 5320 5318 5316 5314 5312 5309 5308 5305 5303 5302 5301 5298 5297 5295 5294 5296 5301 5303 5303 5304 5306 5310 5314 5318 5322
5339 5338 5337 5335 5333 5331 5329 5327 5325 5323 5321 5319 5317 5314 5313 5310 5309 5306 5304 5302 5300 5298 5296 5295 5293 5291 5290 5289 5291 5293 5296 5299 5301 5303 5305 5307 5309 5313
5333 5332 5331 5329 5327 5326 5324 5322 5320 5318 5316 5313 5311 5309 5307 5305 5303 5301 5299 5297 5295 5293 5291 5289 5288 5286 5286 5285 5285 5287 5290 5293 5296 5299 5302 5305 5307 5310